UAE9CL OMDB-EDDM

Flight info

Callsign UAE9CL
Flight time 7h 5m
Altitude 34000
Route ANVIX R401 GIDIS G783 RIGIL M628 PEKEM DCT MEDPO DCT ITRUX/N0496F360 Y511 PMA Z712 WEJ L677 CVO L617 NOZ L551 ANTAR DCT NEVRA/N0477F380 DCT SIGFO DCT BITLA DCT MAVAR DCT AKIKA DCT SOLGU DCT EDALA DCT IDASI DCT ETOBI DCT GORPA DCT BERTA DCT RASTA DCT REDBU Q112 NAPSA NAPSA4A
Aircraft B77W/H-SDE1E2E3FGHIJ2J3J4J5M1RWXY/LB1D1

Departure

Time 2026-05-06 05:11
Airport Dubai International Airport (OMDB)

Arrival

Time 2026-05-06 12:17
Airport Munich Airport (EDDM)
Time Latitude Longitude Altitude Speed Heading
2026-05-06 04:55 25.24641 55.36652 26 ft 0 kts 276°
2026-05-06 05:00 25.24640 55.36668 31 ft 4 kts 276°
2026-05-06 05:00 25.24638 55.36692 32 ft 4 kts 280°
2026-05-06 05:00 25.24631 55.36717 32 ft 4 kts 304°
2026-05-06 05:00 25.24617 55.36733 32 ft 4 kts 340°
2026-05-06 05:01 25.24601 55.36736 32 ft 4 kts 25°
2026-05-06 05:01 25.24579 55.36722 26 ft 4 kts 31°
2026-05-06 05:01 25.24566 55.36714 32 ft 0 kts 31°
2026-05-06 05:05 25.24583 55.36725 26 ft 9 kts 31°
2026-05-06 05:05 25.24662 55.36777 26 ft 17 kts 31°
2026-05-06 05:05 25.24769 55.36849 27 ft 17 kts 32°
2026-05-06 05:05 25.24803 55.36937 28 ft 13 kts 109°
2026-05-06 05:06 25.24756 55.37027 28 ft 13 kts 122°
2026-05-06 05:06 25.24707 55.37113 28 ft 13 kts 122°
2026-05-06 05:06 25.24658 55.37201 28 ft 13 kts 121°
2026-05-06 05:06 25.24609 55.37290 28 ft 13 kts 121°
2026-05-06 05:07 25.24559 55.37377 28 ft 13 kts 122°
2026-05-06 05:07 25.24510 55.37465 28 ft 13 kts 122°
2026-05-06 05:07 25.24461 55.37553 27 ft 13 kts 122°
2026-05-06 05:07 25.24411 55.37641 27 ft 13 kts 122°
2026-05-06 05:08 25.24362 55.37728 28 ft 13 kts 122°
2026-05-06 05:08 25.24352 55.37824 29 ft 13 kts 59°
2026-05-06 05:08 25.24426 55.37887 34 ft 13 kts 34°
2026-05-06 05:08 25.24503 55.37946 35 ft 13 kts 34°
2026-05-06 05:09 25.24585 55.38009 30 ft 14 kts 33°
2026-05-06 05:09 25.24642 55.38049 30 ft 2 kts 32°
2026-05-06 05:09 25.24652 55.38055 31 ft 2 kts 31°
2026-05-06 05:09 25.24662 55.38062 31 ft 3 kts 31°
2026-05-06 05:10 25.24695 55.38085 33 ft 9 kts 31°
2026-05-06 05:10 25.24761 55.38099 35 ft 9 kts 341°
2026-05-06 05:10 25.24798 55.38047 35 ft 9 kts 300°
2026-05-06 05:10 25.24884 55.37887 35 ft 54 kts 301°
2026-05-06 05:11 25.25216 55.37289 37 ft 127 kts 301°
2026-05-06 05:11 25.25789 55.36250 36 ft 186 kts 301°
2026-05-06 05:11 25.26498 55.34962 414 ft 201 kts 301°
2026-05-06 05:11 25.27243 55.33632 1051 ft 204 kts 299°
2026-05-06 05:12 25.27991 55.32285 1634 ft 209 kts 298°
2026-05-06 05:12 25.28759 55.30906 2143 ft 210 kts 298°
2026-05-06 05:12 25.29257 55.29425 2629 ft 207 kts 267°
2026-05-06 05:12 25.28897 55.27921 3026 ft 206 kts 243°
2026-05-06 05:13 25.28279 55.26463 3425 ft 211 kts 244°
2026-05-06 05:13 25.27656 55.24990 3932 ft 213 kts 244°
2026-05-06 05:13 25.27024 55.23501 4389 ft 215 kts 245°
2026-05-06 05:13 25.26382 55.21994 4868 ft 218 kts 245°
2026-05-06 05:14 25.25721 55.20439 5150 ft 234 kts 245°
2026-05-06 05:14 25.25006 55.18761 5452 ft 247 kts 244°
2026-05-06 05:14 25.23924 55.17251 5755 ft 258 kts 212°
2026-05-06 05:14 25.22224 55.16646 6135 ft 263 kts 179°
2026-05-06 05:15 25.20662 55.16738 6469 ft 267 kts 173°
2026-05-06 05:15 25.18896 55.17332 6904 ft 268 kts 143°
2026-05-06 05:15 25.17639 55.18831 7225 ft 276 kts 117°
2026-05-06 05:15 25.16719 55.20767 7619 ft 286 kts 116°
2026-05-06 05:16 25.15786 55.22728 8224 ft 290 kts 116°
2026-05-06 05:16 25.14840 55.24706 8908 ft 292 kts 116°
2026-05-06 05:16 25.13887 55.26694 9590 ft 295 kts 116°
2026-05-06 05:16 25.12925 55.28703 10197 ft 298 kts 116°
2026-05-06 05:17 25.11951 55.30731 10838 ft 300 kts 116°
2026-05-06 05:17 25.10966 55.32778 11532 ft 303 kts 117°
2026-05-06 05:17 25.10031 55.34871 12264 ft 305 kts 114°
2026-05-06 05:17 25.09161 55.37016 13042 ft 308 kts 113°
2026-05-06 05:18 25.08284 55.39186 13772 ft 312 kts 113°
2026-05-06 05:18 25.07386 55.41382 14450 ft 315 kts 114°
2026-05-06 05:18 25.06497 55.43633 14933 ft 329 kts 112°
2026-05-06 05:18 25.05574 55.46051 15090 ft 354 kts 112°
2026-05-06 05:19 25.04592 55.48630 15259 ft 376 kts 112°
2026-05-06 05:19 25.03559 55.51324 15427 ft 396 kts 112°
2026-05-06 05:19 25.02450 55.54201 15866 ft 407 kts 112°
2026-05-06 05:19 25.01272 55.57010 16411 ft 414 kts 118°
2026-05-06 05:20 24.99803 55.59768 17046 ft 419 kts 122°
2026-05-06 05:20 24.98232 55.62490 17725 ft 423 kts 122°
2026-05-06 05:20 24.96669 55.65251 18358 ft 427 kts 121°
2026-05-06 05:20 24.95127 55.68066 18902 ft 431 kts 121°
2026-05-06 05:21 24.93555 55.70912 19387 ft 437 kts 123°
2026-05-06 05:21 24.91802 55.73668 19951 ft 441 kts 127°
2026-05-06 05:21 24.89949 55.76374 20504 ft 445 kts 127°
2026-05-06 05:21 24.88068 55.79105 21043 ft 449 kts 127°
2026-05-06 05:22 24.86196 55.81883 21562 ft 454 kts 127°
2026-05-06 05:22 24.84323 55.84702 22063 ft 459 kts 126°
2026-05-06 05:22 24.82423 55.87552 22561 ft 463 kts 127°
2026-05-06 05:22 24.80414 55.90322 22958 ft 464 kts 136°
2026-05-06 05:23 24.77777 55.92389 23238 ft 469 kts 155°
2026-05-06 05:23 24.74699 55.93548 23728 ft 469 kts 170°
2026-05-06 05:23 24.68211 55.93619 24605 ft 469 kts 185°
2026-05-06 05:24 24.64940 55.93435 24995 ft 470 kts 186°
2026-05-06 05:24 24.61705 55.92871 25279 ft 472 kts 198°
2026-05-06 05:24 24.58660 55.91551 25660 ft 472 kts 209°
2026-05-06 05:24 24.55907 55.89608 26102 ft 468 kts 221°
2026-05-06 05:25 24.53463 55.87234 26486 ft 469 kts 224°
2026-05-06 05:25 24.51041 55.84810 26843 ft 473 kts 224°
2026-05-06 05:25 24.48597 55.82383 27239 ft 475 kts 224°
2026-05-06 05:25 24.46122 55.79965 27668 ft 477 kts 223°
2026-05-06 05:26 24.43658 55.77589 28066 ft 478 kts 223°
2026-05-06 05:26 24.41115 55.75153 28436 ft 481 kts 223°
2026-05-06 05:26 24.38625 55.72770 28789 ft 482 kts 223°
2026-05-06 05:26 24.36094 55.70344 29115 ft 484 kts 223°
2026-05-06 05:27 24.33564 55.67902 29452 ft 486 kts 223°
2026-05-06 05:27 24.31019 55.65442 29746 ft 488 kts 224°
2026-05-06 05:27 24.28372 55.63110 30097 ft 490 kts 217°
2026-05-06 05:27 24.25444 55.61188 30545 ft 489 kts 210°
2026-05-06 05:28 24.22366 55.59614 30991 ft 488 kts 205°
2026-05-06 05:28 24.19143 55.58429 31424 ft 489 kts 198°
2026-05-06 05:28 24.15858 55.57489 31821 ft 487 kts 198°
2026-05-06 05:28 24.12580 55.56577 32193 ft 486 kts 198°
2026-05-06 05:29 24.09312 55.55653 32582 ft 484 kts 198°
2026-05-06 05:29 24.06068 55.54708 32979 ft 482 kts 199°
2026-05-06 05:29 24.02835 55.53750 33366 ft 480 kts 199°
2026-05-06 05:29 23.99628 55.52797 33758 ft 478 kts 199°
2026-05-06 05:30 23.93170 55.50871 33875 ft 482 kts 199°
2026-05-06 05:30 23.86724 55.48955 33871 ft 477 kts 199°
2026-05-06 05:31 23.80338 55.47055 33875 ft 475 kts 199°
2026-05-06 05:31 23.73957 55.45152 33881 ft 475 kts 199°
2026-05-06 05:32 23.67585 55.43253 33876 ft 475 kts 199°
2026-05-06 05:32 23.61203 55.41354 33874 ft 476 kts 199°
2026-05-06 05:33 23.54801 55.39451 33875 ft 478 kts 199°
2026-05-06 05:33 23.48380 55.37548 33872 ft 479 kts 199°
2026-05-06 05:34 23.41937 55.35654 33873 ft 480 kts 199°
2026-05-06 05:34 23.35493 55.33761 33871 ft 480 kts 199°
2026-05-06 05:35 23.29039 55.31865 33869 ft 480 kts 199°
2026-05-06 05:35 23.23669 55.30288 33860 ft 481 kts 199°
2026-05-06 05:36 23.16127 55.28074 33861 ft 481 kts 199°
2026-05-06 05:36 23.09724 55.26183 33856 ft 476 kts 201°
2026-05-06 05:37 23.06758 55.24677 33873 ft 468 kts 218°
2026-05-06 05:37 23.04355 55.22339 33859 ft 463 kts 232°
2026-05-06 05:37 23.01195 55.16324 33849 ft 460 kts 255°
2026-05-06 05:38 23.00090 55.10649 33869 ft 460 kts 259°
2026-05-06 05:38 22.98845 55.03801 33863 ft 465 kts 258°
2026-05-06 05:39 22.97535 54.96909 33861 ft 467 kts 258°
2026-05-06 05:39 22.96181 54.90011 33854 ft 467 kts 258°
2026-05-06 05:40 22.94814 54.83124 33857 ft 466 kts 258°
2026-05-06 05:40 22.93451 54.76268 33851 ft 464 kts 258°
2026-05-06 05:41 22.92091 54.69433 33849 ft 463 kts 258°
2026-05-06 05:41 22.90741 54.62663 33845 ft 462 kts 258°
2026-05-06 05:42 22.89373 54.55815 33858 ft 461 kts 257°
2026-05-06 05:42 22.88021 54.49064 33859 ft 461 kts 257°
2026-05-06 05:43 22.86657 54.42272 33857 ft 461 kts 257°
2026-05-06 05:43 22.85290 54.35476 33837 ft 462 kts 257°
2026-05-06 05:44 22.83917 54.28669 33853 ft 462 kts 257°
2026-05-06 05:44 22.82529 54.21806 33844 ft 463 kts 257°
2026-05-06 05:45 22.81157 54.15031 33845 ft 464 kts 257°
2026-05-06 05:45 22.79771 54.08205 33854 ft 464 kts 257°
2026-05-06 05:46 22.78382 54.01377 33843 ft 464 kts 257°
2026-05-06 05:46 22.77016 53.94555 33848 ft 463 kts 258°
2026-05-06 05:47 22.75691 53.87724 33838 ft 463 kts 258°
2026-05-06 05:47 22.74367 53.80898 33851 ft 463 kts 258°
2026-05-06 05:48 22.73035 53.74077 33849 ft 463 kts 258°
2026-05-06 05:48 22.71696 53.67255 33836 ft 463 kts 258°
2026-05-06 05:49 22.70353 53.60432 33849 ft 463 kts 257°
2026-05-06 05:49 22.69009 53.53617 33849 ft 463 kts 257°
2026-05-06 05:50 22.67662 53.46801 33837 ft 463 kts 257°
2026-05-06 05:50 22.66311 53.39986 33847 ft 463 kts 257°
2026-05-06 05:51 22.64959 53.33174 33832 ft 463 kts 257°
2026-05-06 05:51 22.63601 53.26352 33846 ft 463 kts 257°
2026-05-06 05:52 22.62243 53.19546 33844 ft 463 kts 257°
2026-05-06 05:52 22.60881 53.12735 33844 ft 463 kts 257°
2026-05-06 05:53 22.59516 53.05927 33831 ft 463 kts 257°
2026-05-06 05:53 22.58150 52.99126 33830 ft 463 kts 257°
2026-05-06 05:54 22.56779 52.92317 33846 ft 463 kts 257°
2026-05-06 05:54 22.55406 52.85512 33841 ft 463 kts 257°
2026-05-06 05:55 22.54030 52.78709 33831 ft 463 kts 257°
2026-05-06 05:55 22.52650 52.71906 33829 ft 463 kts 257°
2026-05-06 05:56 22.51268 52.65103 33843 ft 463 kts 257°
2026-05-06 05:56 22.49883 52.58300 33847 ft 463 kts 257°
2026-05-06 05:57 22.48495 52.51500 33833 ft 463 kts 257°
2026-05-06 05:57 22.47104 52.44701 33829 ft 463 kts 257°
2026-05-06 05:58 22.45710 52.37901 33845 ft 463 kts 257°
2026-05-06 05:58 22.44314 52.31108 33830 ft 463 kts 257°
2026-05-06 05:59 22.42916 52.24315 33840 ft 463 kts 257°
2026-05-06 05:59 22.41534 52.17518 33841 ft 463 kts 259°
2026-05-06 06:00 22.40960 52.10629 33848 ft 465 kts 268°
2026-05-06 06:00 22.41338 52.03643 33847 ft 466 kts 274°
2026-05-06 06:01 22.41980 51.96670 33831 ft 467 kts 274°
2026-05-06 06:01 22.42615 51.89691 33836 ft 467 kts 273°
2026-05-06 06:02 22.43225 51.82708 33846 ft 467 kts 273°
2026-05-06 06:02 22.43822 51.75718 33829 ft 467 kts 273°
2026-05-06 06:03 22.44413 51.68729 33831 ft 467 kts 273°
2026-05-06 06:03 22.45003 51.61732 33837 ft 467 kts 273°
2026-05-06 06:04 22.45590 51.54738 33837 ft 467 kts 273°
2026-05-06 06:04 22.46174 51.47741 33833 ft 467 kts 273°
2026-05-06 06:05 22.46752 51.40789 33836 ft 467 kts 273°
2026-05-06 06:05 22.47330 51.33793 33833 ft 467 kts 273°
2026-05-06 06:06 22.47898 51.26880 33837 ft 467 kts 273°
2026-05-06 06:06 22.48470 51.19884 33845 ft 467 kts 273°
2026-05-06 06:07 22.49039 51.12888 33838 ft 467 kts 273°
2026-05-06 06:07 22.49605 51.05898 33847 ft 467 kts 273°
2026-05-06 06:08 22.50167 50.98910 33839 ft 466 kts 273°
2026-05-06 06:08 22.50726 50.91921 33843 ft 466 kts 273°
2026-05-06 06:09 22.51282 50.84935 33842 ft 466 kts 273°
2026-05-06 06:09 22.51835 50.77950 33849 ft 466 kts 273°
2026-05-06 06:10 22.52385 50.70958 33845 ft 466 kts 273°
2026-05-06 06:10 22.52932 50.63965 33850 ft 467 kts 273°
2026-05-06 06:11 22.53477 50.56971 33845 ft 467 kts 272°
2026-05-06 06:11 22.54018 50.49974 33847 ft 467 kts 272°
2026-05-06 06:12 22.54557 50.42972 33848 ft 467 kts 272°
2026-05-06 06:12 22.55093 50.35970 33848 ft 467 kts 272°
2026-05-06 06:13 22.55625 50.28971 33848 ft 467 kts 272°
2026-05-06 06:13 22.56155 50.21968 33853 ft 467 kts 272°
2026-05-06 06:14 22.56681 50.14975 33849 ft 467 kts 272°
2026-05-06 06:14 22.57204 50.07979 33852 ft 466 kts 272°
2026-05-06 06:15 22.57723 50.00988 33848 ft 466 kts 272°
2026-05-06 06:15 22.58240 49.94003 33849 ft 466 kts 272°
2026-05-06 06:16 22.58752 49.87020 33856 ft 465 kts 272°
2026-05-06 06:16 22.59262 49.80042 33853 ft 465 kts 272°
2026-05-06 06:17 22.59765 49.73112 33851 ft 465 kts 272°
2026-05-06 06:17 22.60268 49.66138 33853 ft 465 kts 272°
2026-05-06 06:18 22.60768 49.59158 33857 ft 465 kts 272°
2026-05-06 06:18 22.61265 49.52189 33858 ft 465 kts 272°
2026-05-06 06:19 22.61759 49.45210 33854 ft 465 kts 272°
2026-05-06 06:19 22.62250 49.38230 33859 ft 465 kts 272°
2026-05-06 06:20 22.62739 49.31246 33856 ft 465 kts 272°
2026-05-06 06:20 22.63224 49.24265 33861 ft 465 kts 272°
2026-05-06 06:21 22.63707 49.17281 33862 ft 465 kts 272°
2026-05-06 06:21 22.64186 49.10293 33862 ft 466 kts 272°
2026-05-06 06:22 22.64583 49.04483 33862 ft 466 kts 272°
2026-05-06 06:22 22.65057 48.97490 33867 ft 466 kts 272°
2026-05-06 06:23 22.65528 48.90498 33864 ft 465 kts 272°
2026-05-06 06:23 22.65996 48.83514 33868 ft 465 kts 272°
2026-05-06 06:24 22.66460 48.76534 33868 ft 465 kts 272°
2026-05-06 06:24 22.66922 48.69550 33866 ft 465 kts 272°
2026-05-06 06:25 22.67380 48.62574 33864 ft 464 kts 272°
2026-05-06 06:26 22.68060 48.52115 33866 ft 464 kts 272°
2026-05-06 06:26 22.68511 48.45142 33865 ft 464 kts 272°
2026-05-06 06:27 22.68957 48.38175 33863 ft 464 kts 272°
2026-05-06 06:27 22.69401 48.31205 33861 ft 464 kts 271°
2026-05-06 06:28 22.69842 48.24237 33861 ft 464 kts 271°
2026-05-06 06:28 22.70279 48.17274 33860 ft 464 kts 271°
2026-05-06 06:29 22.70714 48.10304 33862 ft 464 kts 271°
2026-05-06 06:29 22.71145 48.03335 33865 ft 464 kts 271°
2026-05-06 06:30 22.71574 47.96365 33864 ft 464 kts 271°
2026-05-06 06:30 22.72000 47.89394 33866 ft 464 kts 271°
2026-05-06 06:31 22.72419 47.82476 33866 ft 463 kts 271°
2026-05-06 06:31 22.72838 47.75514 33869 ft 463 kts 271°
2026-05-06 06:32 22.73254 47.68556 33868 ft 463 kts 271°
2026-05-06 06:32 22.73666 47.61603 33868 ft 462 kts 271°
2026-05-06 06:33 22.74075 47.54657 33878 ft 462 kts 271°
2026-05-06 06:33 22.74480 47.47720 33873 ft 461 kts 271°
2026-05-06 06:34 22.74882 47.40789 33888 ft 460 kts 271°
2026-05-06 06:34 22.75281 47.33873 33888 ft 460 kts 271°
2026-05-06 06:35 22.75676 47.26962 33880 ft 459 kts 271°
2026-05-06 06:35 22.76067 47.20060 33891 ft 459 kts 271°
2026-05-06 06:36 22.76515 47.13162 33888 ft 459 kts 272°
2026-05-06 06:36 22.77084 47.06275 33905 ft 459 kts 273°
2026-05-06 06:37 22.77657 46.99386 33904 ft 459 kts 272°
2026-05-06 06:37 22.78210 46.92499 33906 ft 459 kts 272°
2026-05-06 06:38 22.78751 46.85617 33899 ft 459 kts 272°
2026-05-06 06:38 22.79285 46.78774 33910 ft 459 kts 272°
2026-05-06 06:39 22.79824 46.71840 33915 ft 459 kts 272°
2026-05-06 06:39 22.80353 46.65000 33929 ft 459 kts 272°
2026-05-06 06:40 22.80884 46.58107 33921 ft 459 kts 272°
2026-05-06 06:40 22.81411 46.51208 33921 ft 459 kts 272°
2026-05-06 06:41 22.81936 46.44310 33941 ft 460 kts 272°
2026-05-06 06:41 22.82459 46.37395 33933 ft 460 kts 272°
2026-05-06 06:42 22.82971 46.30475 33940 ft 461 kts 271°
2026-05-06 06:42 22.83479 46.23549 33931 ft 461 kts 271°
2026-05-06 06:43 22.83985 46.16619 33936 ft 461 kts 271°
2026-05-06 06:43 22.84491 46.09683 33930 ft 462 kts 271°
2026-05-06 06:44 22.84994 46.02731 33923 ft 463 kts 271°
2026-05-06 06:44 22.85495 45.95765 33934 ft 464 kts 271°
2026-05-06 06:45 22.85992 45.88794 33928 ft 464 kts 271°
2026-05-06 06:45 22.86489 45.81798 33931 ft 465 kts 271°
2026-05-06 06:46 22.86982 45.74807 33920 ft 466 kts 271°
2026-05-06 06:46 22.87473 45.67801 33921 ft 466 kts 270°
2026-05-06 06:47 22.87961 45.60792 33936 ft 466 kts 270°
2026-05-06 06:47 22.88444 45.53822 33931 ft 466 kts 270°
2026-05-06 06:48 22.88926 45.46817 33927 ft 466 kts 270°
2026-05-06 06:48 22.89408 45.39767 33941 ft 465 kts 270°
2026-05-06 06:49 22.89880 45.32822 33930 ft 464 kts 270°
2026-05-06 06:49 22.90350 45.25845 33924 ft 463 kts 270°
2026-05-06 06:50 22.90816 45.18896 33932 ft 461 kts 270°
2026-05-06 06:50 22.91277 45.11977 33936 ft 459 kts 270°
2026-05-06 06:51 22.91734 45.05077 33929 ft 458 kts 270°
2026-05-06 06:51 22.92187 44.98205 33957 ft 456 kts 270°
2026-05-06 06:52 22.92636 44.91342 33935 ft 456 kts 270°
2026-05-06 06:52 22.93081 44.84498 33954 ft 455 kts 270°
2026-05-06 06:53 22.93524 44.77658 33957 ft 454 kts 270°
2026-05-06 06:53 22.93975 44.70833 33952 ft 454 kts 272°
2026-05-06 06:54 22.95125 44.64077 33958 ft 458 kts 281°
2026-05-06 06:54 22.97112 44.57487 33963 ft 460 kts 284°
2026-05-06 06:55 22.99180 44.50929 33956 ft 459 kts 284°
2026-05-06 06:55 23.01222 44.44378 33955 ft 458 kts 284°
2026-05-06 06:56 23.03243 44.37828 33958 ft 457 kts 284°
2026-05-06 06:56 23.05251 44.31294 33959 ft 456 kts 284°
2026-05-06 06:57 23.07254 44.24767 33959 ft 455 kts 284°
2026-05-06 06:57 23.09251 44.18249 33961 ft 455 kts 284°
2026-05-06 06:58 23.11246 44.11729 33963 ft 454 kts 283°
2026-05-06 06:58 23.13236 44.05212 33960 ft 454 kts 283°
2026-05-06 06:59 23.15224 43.98694 33979 ft 454 kts 283°
2026-05-06 06:59 23.17207 43.92182 33980 ft 454 kts 283°
2026-05-06 07:00 23.19186 43.85671 33972 ft 453 kts 283°
2026-05-06 07:00 23.21160 43.79165 33982 ft 453 kts 283°
2026-05-06 07:01 23.23129 43.72666 33995 ft 452 kts 283°
2026-05-06 07:01 23.25092 43.66175 33991 ft 452 kts 283°
2026-05-06 07:02 23.27054 43.59677 33999 ft 452 kts 283°
2026-05-06 07:02 23.28998 43.53227 34010 ft 452 kts 283°
2026-05-06 07:03 23.30948 43.46734 34008 ft 452 kts 283°
2026-05-06 07:03 23.32896 43.40236 34012 ft 452 kts 283°
2026-05-06 07:04 23.34841 43.33740 34023 ft 451 kts 283°
2026-05-06 07:04 23.36782 43.27244 34028 ft 451 kts 282°
2026-05-06 07:05 23.38721 43.20745 34036 ft 451 kts 282°
2026-05-06 07:05 23.40656 43.14253 34035 ft 451 kts 282°
2026-05-06 07:06 23.42581 43.07759 34040 ft 451 kts 282°
2026-05-06 07:06 23.44496 43.01265 34042 ft 450 kts 282°
2026-05-06 07:07 23.46408 42.94777 34050 ft 449 kts 282°
2026-05-06 07:07 23.48314 42.88302 34045 ft 449 kts 282°
2026-05-06 07:08 23.50214 42.81834 34046 ft 448 kts 282°
2026-05-06 07:08 23.52107 42.75381 34042 ft 447 kts 282°
2026-05-06 07:09 23.53699 42.69982 34043 ft 446 kts 282°
2026-05-06 07:09 23.55586 42.63598 34043 ft 445 kts 282°
2026-05-06 07:10 23.57494 42.57129 34041 ft 445 kts 282°
2026-05-06 07:10 23.59366 42.50764 34038 ft 444 kts 282°
2026-05-06 07:11 23.61246 42.44361 34046 ft 443 kts 282°
2026-05-06 07:11 23.63120 42.37965 34044 ft 443 kts 282°
2026-05-06 07:12 23.64992 42.31571 34050 ft 442 kts 282°
2026-05-06 07:12 23.66853 42.25175 34041 ft 442 kts 282°
2026-05-06 07:13 23.68694 42.18780 34042 ft 442 kts 281°
2026-05-06 07:13 23.70533 42.12379 34042 ft 442 kts 281°
2026-05-06 07:14 23.72372 42.05976 34044 ft 442 kts 281°
2026-05-06 07:14 23.74209 41.99570 34041 ft 442 kts 281°
2026-05-06 07:15 23.76062 41.93171 34037 ft 442 kts 281°
2026-05-06 07:15 23.77925 41.86775 34039 ft 442 kts 281°
2026-05-06 07:16 23.79783 41.80372 34036 ft 442 kts 281°
2026-05-06 07:16 23.81632 41.73974 34033 ft 442 kts 281°
2026-05-06 07:17 23.83470 41.67575 34042 ft 441 kts 281°
2026-05-06 07:17 23.85303 41.61182 34040 ft 441 kts 281°
2026-05-06 07:18 23.87134 41.54787 34029 ft 441 kts 281°
2026-05-06 07:18 23.88959 41.48395 34035 ft 441 kts 281°
2026-05-06 07:19 23.90780 41.42000 34038 ft 441 kts 281°
2026-05-06 07:19 23.92588 41.35648 34035 ft 441 kts 281°
2026-05-06 07:20 23.94403 41.29255 34037 ft 440 kts 281°
2026-05-06 07:20 23.96213 41.22865 34034 ft 440 kts 281°
2026-05-06 07:21 23.98018 41.16483 34029 ft 439 kts 281°
2026-05-06 07:21 23.99817 41.10112 34035 ft 438 kts 280°
2026-05-06 07:22 24.01610 41.03747 34028 ft 437 kts 280°
2026-05-06 07:22 24.03396 40.97397 34027 ft 437 kts 280°
2026-05-06 07:23 24.05177 40.91055 34019 ft 436 kts 280°
2026-05-06 07:23 24.06950 40.84724 34023 ft 435 kts 280°
2026-05-06 07:24 24.08637 40.78688 34022 ft 434 kts 280°
2026-05-06 07:24 24.10402 40.72362 34018 ft 434 kts 280°
2026-05-06 07:25 24.12163 40.66040 34019 ft 434 kts 280°
2026-05-06 07:25 24.13922 40.59712 34021 ft 434 kts 280°
2026-05-06 07:26 24.15705 40.53388 34023 ft 436 kts 282°
2026-05-06 07:26 24.18174 40.47249 34031 ft 445 kts 290°
2026-05-06 07:27 24.21081 40.41255 34010 ft 446 kts 290°
2026-05-06 07:27 24.23975 40.35251 34014 ft 445 kts 289°
2026-05-06 07:28 24.26850 40.29242 34012 ft 445 kts 289°
2026-05-06 07:28 24.31149 40.20221 34017 ft 445 kts 289°
2026-05-06 07:29 24.34011 40.14206 34012 ft 445 kts 289°
2026-05-06 07:29 24.36869 40.08194 34019 ft 445 kts 289°
2026-05-06 07:30 24.39709 40.02211 34016 ft 445 kts 289°
2026-05-06 07:30 24.42562 39.96192 34016 ft 445 kts 289°
2026-05-06 07:31 24.45432 39.90132 34025 ft 445 kts 289°
2026-05-06 07:31 24.48260 39.84151 34032 ft 445 kts 289°
2026-05-06 07:32 24.51109 39.78118 34023 ft 445 kts 289°
2026-05-06 07:32 24.54361 39.72271 34026 ft 458 kts 300°
2026-05-06 07:33 24.58814 39.67142 34020 ft 472 kts 311°
2026-05-06 07:33 24.64139 39.62805 34016 ft 478 kts 315°
2026-05-06 07:34 24.69564 39.58589 34031 ft 477 kts 315°
2026-05-06 07:34 24.74949 39.54351 34030 ft 476 kts 315°
2026-05-06 07:35 24.80307 39.50076 34025 ft 476 kts 314°
2026-05-06 07:35 24.85665 39.45783 34021 ft 476 kts 314°
2026-05-06 07:36 24.91016 39.41488 34020 ft 476 kts 314°
2026-05-06 07:36 24.96371 39.37190 34020 ft 477 kts 314°
2026-05-06 07:37 25.01734 39.32882 34021 ft 477 kts 314°
2026-05-06 07:37 25.07100 39.28570 34027 ft 478 kts 314°
2026-05-06 07:38 25.12474 39.24243 34015 ft 478 kts 314°
2026-05-06 07:38 25.17837 39.19917 34023 ft 476 kts 313°
2026-05-06 07:39 25.22585 39.15015 34029 ft 461 kts 302°
2026-05-06 07:39 25.26391 39.09427 34025 ft 451 kts 294°
2026-05-06 07:40 25.29777 39.03588 33995 ft 451 kts 294°
2026-05-06 07:40 25.33143 38.97753 34035 ft 450 kts 294°
2026-05-06 07:41 25.36537 38.91917 34022 ft 452 kts 294°
2026-05-06 07:41 25.39948 38.86070 34000 ft 453 kts 294°
2026-05-06 07:42 25.43361 38.80218 34024 ft 453 kts 295°
2026-05-06 07:42 25.46774 38.74359 34026 ft 453 kts 295°
2026-05-06 07:43 25.50184 38.68497 33993 ft 453 kts 295°
2026-05-06 07:43 25.53586 38.62641 34008 ft 452 kts 295°
2026-05-06 07:44 25.56982 38.56786 34004 ft 452 kts 295°
2026-05-06 07:44 25.60376 38.50927 34000 ft 452 kts 295°
2026-05-06 07:45 25.63770 38.45060 33997 ft 452 kts 295°
2026-05-06 07:45 25.67137 38.39234 33996 ft 452 kts 295°
2026-05-06 07:46 25.70526 38.33364 33991 ft 452 kts 295°
2026-05-06 07:46 25.73914 38.27486 33987 ft 452 kts 295°
2026-05-06 07:47 25.77299 38.21607 33978 ft 452 kts 295°
2026-05-06 07:47 25.80674 38.15736 33988 ft 451 kts 295°
2026-05-06 07:48 25.84040 38.09879 34005 ft 450 kts 295°
2026-05-06 07:48 25.87410 38.03997 33999 ft 453 kts 295°
2026-05-06 07:49 25.90801 37.98074 34005 ft 455 kts 295°
2026-05-06 07:49 25.94204 37.92130 34009 ft 457 kts 295°
2026-05-06 07:50 25.97604 37.86167 34018 ft 456 kts 294°
2026-05-06 07:50 26.00172 37.79863 34031 ft 443 kts 282°
2026-05-06 07:51 26.01647 37.73280 34034 ft 435 kts 274°
2026-05-06 07:51 26.02513 37.66623 34035 ft 435 kts 273°
2026-05-06 07:52 26.03388 37.59958 34033 ft 435 kts 274°
2026-05-06 07:52 26.04295 37.53287 34015 ft 437 kts 274°
2026-05-06 07:53 26.05200 37.46599 34006 ft 438 kts 273°
2026-05-06 07:53 26.05940 37.41029 33999 ft 438 kts 273°
2026-05-06 07:54 26.06975 37.33212 33991 ft 437 kts 273°
2026-05-06 07:54 26.07709 37.27661 33989 ft 436 kts 273°
2026-05-06 07:55 26.08589 37.20989 33987 ft 436 kts 273°
2026-05-06 07:55 26.09605 37.13245 33979 ft 436 kts 273°
2026-05-06 07:56 26.10477 37.06581 33974 ft 435 kts 273°
2026-05-06 07:56 26.11199 37.01040 33970 ft 435 kts 273°
2026-05-06 07:57 26.12065 36.94371 33968 ft 436 kts 273°
2026-05-06 07:57 26.12929 36.87698 33964 ft 436 kts 273°
2026-05-06 07:58 26.13791 36.81015 33961 ft 436 kts 273°
2026-05-06 07:58 26.14649 36.74337 33966 ft 436 kts 273°
2026-05-06 07:59 26.15505 36.67649 33964 ft 436 kts 273°
2026-05-06 07:59 26.16358 36.60958 33967 ft 437 kts 273°
2026-05-06 08:00 26.17235 36.54267 33964 ft 437 kts 276°
2026-05-06 08:00 26.18135 36.51008 33973 ft 446 kts 287°
2026-05-06 08:00 26.19503 36.47890 33974 ft 452 kts 292°
2026-05-06 08:01 26.23359 36.42243 33972 ft 466 kts 306°
2026-05-06 08:01 26.27926 36.37099 33970 ft 467 kts 307°
2026-05-06 08:02 26.32476 36.31991 33972 ft 467 kts 307°
2026-05-06 08:02 26.37034 36.26777 33970 ft 466 kts 306°
2026-05-06 08:03 26.41540 36.21572 33967 ft 466 kts 306°
2026-05-06 08:03 26.46040 36.16363 33967 ft 466 kts 306°
2026-05-06 08:04 26.50506 36.11190 33970 ft 465 kts 306°
2026-05-06 08:04 26.54997 36.05984 33975 ft 465 kts 306°
2026-05-06 08:05 26.59485 36.00776 33973 ft 465 kts 306°
2026-05-06 08:05 26.63972 35.95562 33979 ft 465 kts 307°
2026-05-06 08:06 26.68458 35.90342 33975 ft 465 kts 307°
2026-05-06 08:06 26.72944 35.85117 33986 ft 465 kts 307°
2026-05-06 08:07 26.77423 35.79893 33985 ft 465 kts 307°
2026-05-06 08:07 26.81904 35.74663 33976 ft 465 kts 307°
2026-05-06 08:08 26.86386 35.69425 33983 ft 466 kts 307°
2026-05-06 08:08 26.90864 35.64185 33984 ft 466 kts 307°
2026-05-06 08:09 26.95312 35.58972 33990 ft 466 kts 307°
2026-05-06 08:09 26.99789 35.53719 33991 ft 466 kts 307°
2026-05-06 08:10 27.04259 35.48467 33992 ft 466 kts 307°
2026-05-06 08:10 27.08761 35.43172 33996 ft 466 kts 307°
2026-05-06 08:11 27.13200 35.37944 33999 ft 465 kts 307°
2026-05-06 08:11 27.17690 35.32650 34000 ft 465 kts 307°
2026-05-06 08:12 27.22148 35.27386 34002 ft 465 kts 307°
2026-05-06 08:12 27.26605 35.22118 33999 ft 465 kts 307°
2026-05-06 08:13 27.31025 35.16886 34003 ft 464 kts 307°
2026-05-06 08:13 27.35470 35.11618 34004 ft 464 kts 307°
2026-05-06 08:14 27.39915 35.06344 34007 ft 464 kts 307°
2026-05-06 08:14 27.44352 35.01071 34008 ft 464 kts 307°
2026-05-06 08:15 27.48788 34.95794 34009 ft 464 kts 307°
2026-05-06 08:15 27.53311 34.90597 34006 ft 466 kts 310°
2026-05-06 08:16 27.58051 34.85602 34007 ft 467 kts 311°
2026-05-06 08:16 27.62806 34.80629 34008 ft 466 kts 311°
2026-05-06 08:17 27.67547 34.75628 34010 ft 466 kts 311°
2026-05-06 08:17 27.72271 34.70619 34016 ft 466 kts 311°
2026-05-06 08:18 27.76990 34.65606 34022 ft 466 kts 311°
2026-05-06 08:18 27.81712 34.60585 34012 ft 466 kts 311°
2026-05-06 08:19 27.86429 34.55563 34019 ft 466 kts 311°
2026-05-06 08:19 27.91148 34.50533 34018 ft 466 kts 311°
2026-05-06 08:20 27.95863 34.45502 34019 ft 466 kts 311°
2026-05-06 08:20 28.00504 34.40394 34025 ft 463 kts 307°
2026-05-06 08:21 28.04592 34.34802 34020 ft 461 kts 304°
2026-05-06 08:21 28.08617 34.29158 34021 ft 461 kts 304°
2026-05-06 08:22 28.12666 34.23514 34023 ft 462 kts 304°
2026-05-06 08:22 28.16729 34.17874 34025 ft 462 kts 304°
2026-05-06 08:23 28.20792 34.12235 34031 ft 462 kts 304°
2026-05-06 08:23 28.24851 34.06596 34044 ft 462 kts 304°
2026-05-06 08:24 28.28878 34.00990 34031 ft 461 kts 305°
2026-05-06 08:24 28.32920 33.95355 34036 ft 460 kts 305°
2026-05-06 08:25 28.36960 33.89711 34050 ft 461 kts 304°
2026-05-06 08:25 28.41006 33.84057 34038 ft 461 kts 304°
2026-05-06 08:26 28.45049 33.78398 34039 ft 461 kts 304°
2026-05-06 08:26 28.49086 33.72739 34034 ft 461 kts 304°
2026-05-06 08:27 28.53117 33.67083 34047 ft 460 kts 304°
2026-05-06 08:27 28.57136 33.61428 34054 ft 459 kts 304°
2026-05-06 08:28 28.61147 33.55777 34049 ft 459 kts 304°
2026-05-06 08:28 28.65155 33.50125 34049 ft 459 kts 304°
2026-05-06 08:29 28.69165 33.44474 34052 ft 458 kts 304°
2026-05-06 08:29 28.73169 33.38826 34060 ft 458 kts 304°
2026-05-06 08:30 28.77161 33.33185 34057 ft 457 kts 304°
2026-05-06 08:30 28.81151 33.27536 34064 ft 457 kts 304°
2026-05-06 08:31 28.85130 33.21895 34067 ft 457 kts 304°
2026-05-06 08:31 28.89110 33.16245 34068 ft 457 kts 304°
2026-05-06 08:32 28.93064 33.10626 34075 ft 457 kts 304°
2026-05-06 08:32 28.97038 33.04971 34081 ft 457 kts 304°
2026-05-06 08:33 29.01014 32.99304 34092 ft 457 kts 304°
2026-05-06 08:33 29.04983 32.93640 34093 ft 457 kts 304°
2026-05-06 08:34 29.10931 32.85136 34099 ft 456 kts 304°
2026-05-06 08:35 29.14893 32.79463 34102 ft 456 kts 304°
2026-05-06 08:35 29.18848 32.73791 34110 ft 456 kts 304°
2026-05-06 08:36 29.22796 32.68120 34112 ft 455 kts 304°
2026-05-06 08:36 29.26738 32.62452 34115 ft 455 kts 304°
2026-05-06 08:37 29.30669 32.56775 34123 ft 455 kts 303°
2026-05-06 08:37 29.32630 32.53917 34291 ft 458 kts 303°
2026-05-06 08:37 29.34593 32.51051 34716 ft 455 kts 303°
2026-05-06 08:37 29.36538 32.48211 35139 ft 452 kts 303°
2026-05-06 08:38 29.38479 32.45377 35526 ft 451 kts 303°
2026-05-06 08:38 29.40411 32.42553 35882 ft 450 kts 303°
2026-05-06 08:38 29.42344 32.39726 36067 ft 453 kts 303°
2026-05-06 08:39 29.46242 32.34017 36130 ft 454 kts 303°
2026-05-06 08:39 29.50104 32.28364 36133 ft 447 kts 303°
2026-05-06 08:40 29.53933 32.22745 36140 ft 446 kts 304°
2026-05-06 08:40 29.57725 32.17172 36137 ft 445 kts 303°
2026-05-06 08:41 29.61536 32.11563 36143 ft 445 kts 303°
2026-05-06 08:41 29.65345 32.05951 36148 ft 445 kts 303°
2026-05-06 08:42 29.69152 32.00333 36149 ft 446 kts 303°
2026-05-06 08:42 29.72962 31.94703 36147 ft 446 kts 303°
2026-05-06 08:43 29.76773 31.89065 36142 ft 446 kts 303°
2026-05-06 08:43 29.80543 31.83394 36141 ft 446 kts 302°
2026-05-06 08:44 29.84219 31.77649 36144 ft 445 kts 302°
2026-05-06 08:44 29.87272 31.72880 36138 ft 445 kts 302°
2026-05-06 08:45 29.90958 31.67147 36139 ft 445 kts 302°
2026-05-06 08:45 29.94647 31.61422 36138 ft 445 kts 303°
2026-05-06 08:46 29.98336 31.55704 36110 ft 444 kts 303°
2026-05-06 08:46 30.02020 31.49982 36105 ft 444 kts 303°
2026-05-06 08:47 30.05698 31.44260 36107 ft 444 kts 303°
2026-05-06 08:47 30.09492 31.38623 36106 ft 446 kts 308°
2026-05-06 08:48 30.13965 31.33597 36107 ft 449 kts 313°
2026-05-06 08:48 30.18572 31.28718 36108 ft 449 kts 313°
2026-05-06 08:49 30.23167 31.23822 36111 ft 449 kts 313°
2026-05-06 08:49 30.27742 31.18913 36116 ft 449 kts 313°
2026-05-06 08:50 30.32314 31.13990 36116 ft 448 kts 313°
2026-05-06 08:50 30.36878 31.09068 36128 ft 448 kts 313°
2026-05-06 08:51 30.41439 31.04144 36128 ft 448 kts 313°
2026-05-06 08:51 30.45999 30.99215 36118 ft 448 kts 313°
2026-05-06 08:52 30.50524 30.94318 36122 ft 448 kts 313°
2026-05-06 08:52 30.55078 30.89382 36111 ft 448 kts 313°
2026-05-06 08:53 30.59629 30.84442 36131 ft 448 kts 313°
2026-05-06 08:53 30.64180 30.79496 36123 ft 448 kts 313°
2026-05-06 08:54 30.68727 30.74548 36120 ft 448 kts 313°
2026-05-06 08:54 30.73272 30.69595 36123 ft 448 kts 313°
2026-05-06 08:55 30.77821 30.64632 36114 ft 449 kts 313°
2026-05-06 08:55 30.82368 30.59663 36117 ft 448 kts 313°
2026-05-06 08:56 30.86916 30.54687 36113 ft 448 kts 313°
2026-05-06 08:56 30.91455 30.49714 36119 ft 448 kts 313°
2026-05-06 08:57 30.95991 30.44736 36118 ft 448 kts 313°
2026-05-06 08:57 31.00523 30.39756 36117 ft 448 kts 313°
2026-05-06 08:58 31.05051 30.34774 36117 ft 447 kts 312°
2026-05-06 08:58 31.08845 30.29140 36128 ft 440 kts 298°
2026-05-06 08:59 31.11366 30.22693 36128 ft 436 kts 287°
2026-05-06 08:59 31.13162 30.15922 36128 ft 437 kts 286°
2026-05-06 09:00 31.14958 30.09190 36132 ft 438 kts 286°
2026-05-06 09:00 31.16807 30.02418 36129 ft 438 kts 287°
2026-05-06 09:01 31.19585 29.96144 36144 ft 442 kts 307°
2026-05-06 09:01 31.24275 29.91451 36125 ft 451 kts 327°
2026-05-06 09:02 31.29845 29.88028 36136 ft 454 kts 328°
2026-05-06 09:02 31.35465 29.84641 36139 ft 455 kts 328°
2026-05-06 09:03 31.41067 29.81186 36134 ft 455 kts 327°
2026-05-06 09:03 31.46647 29.77693 36131 ft 455 kts 327°
2026-05-06 09:04 31.52217 29.74193 36132 ft 454 kts 327°
2026-05-06 09:04 31.57777 29.70696 36132 ft 453 kts 327°
2026-05-06 09:05 31.63317 29.67208 36134 ft 452 kts 327°
2026-05-06 09:05 31.68846 29.63722 36131 ft 451 kts 327°
2026-05-06 09:06 31.74362 29.60240 36133 ft 450 kts 327°
2026-05-06 09:06 31.79870 29.56759 36134 ft 449 kts 327°
2026-05-06 09:07 31.85372 29.53276 36137 ft 449 kts 327°
2026-05-06 09:07 31.90876 29.49787 36137 ft 449 kts 327°
2026-05-06 09:08 31.96368 29.46300 36138 ft 449 kts 327°
2026-05-06 09:08 32.01863 29.42807 36135 ft 449 kts 327°
2026-05-06 09:09 32.07348 29.39304 36135 ft 448 kts 327°
2026-05-06 09:09 32.12831 29.35794 36133 ft 448 kts 327°
2026-05-06 09:10 32.18307 29.32285 36138 ft 448 kts 327°
2026-05-06 09:10 32.23745 29.28799 36133 ft 448 kts 327°
2026-05-06 09:11 32.29223 29.25291 36132 ft 448 kts 327°
2026-05-06 09:11 32.34699 29.21779 36134 ft 447 kts 328°
2026-05-06 09:12 32.40167 29.18267 36131 ft 447 kts 328°
2026-05-06 09:12 32.45635 29.14749 36130 ft 447 kts 328°
2026-05-06 09:13 32.51094 29.11231 36126 ft 447 kts 328°
2026-05-06 09:13 32.56549 29.07712 36128 ft 446 kts 328°
2026-05-06 09:14 32.61997 29.04192 36131 ft 446 kts 328°
2026-05-06 09:14 32.67437 29.00671 36129 ft 445 kts 328°
2026-05-06 09:15 32.72872 28.97150 36128 ft 445 kts 328°
2026-05-06 09:15 32.78301 28.93627 36127 ft 444 kts 328°
2026-05-06 09:16 32.83721 28.90106 36132 ft 444 kts 328°
2026-05-06 09:16 32.89136 28.86582 36120 ft 443 kts 327°
2026-05-06 09:17 32.94508 28.83082 36120 ft 443 kts 328°
2026-05-06 09:17 32.99944 28.79535 36122 ft 442 kts 327°
2026-05-06 09:18 33.05341 28.76008 36123 ft 442 kts 327°
2026-05-06 09:18 33.10697 28.72503 36123 ft 442 kts 328°
2026-05-06 09:19 33.16087 28.68971 36120 ft 442 kts 328°
2026-05-06 09:19 33.21472 28.65438 36123 ft 442 kts 328°
2026-05-06 09:20 33.26858 28.61898 36125 ft 442 kts 327°
2026-05-06 09:20 33.32241 28.58356 36120 ft 441 kts 327°
2026-05-06 09:21 33.37616 28.54814 36124 ft 441 kts 328°
2026-05-06 09:21 33.42994 28.51265 36120 ft 441 kts 328°
2026-05-06 09:22 33.48368 28.47713 36121 ft 441 kts 328°
2026-05-06 09:22 33.53739 28.44158 36118 ft 441 kts 328°
2026-05-06 09:23 33.59110 28.40598 36123 ft 441 kts 328°
2026-05-06 09:23 33.64477 28.37035 36118 ft 441 kts 328°
2026-05-06 09:24 33.69809 28.33491 36119 ft 441 kts 328°
2026-05-06 09:24 33.75171 28.29921 36120 ft 441 kts 328°
2026-05-06 09:25 33.80510 28.26314 36120 ft 439 kts 325°
2026-05-06 09:25 33.85623 28.22304 36124 ft 438 kts 323°
2026-05-06 09:26 33.90616 28.18017 36116 ft 438 kts 321°
2026-05-06 09:26 33.95488 28.13705 36117 ft 438 kts 321°
2026-05-06 09:27 34.00407 28.09371 36119 ft 438 kts 321°
2026-05-06 09:27 34.05334 28.05055 36119 ft 438 kts 321°
2026-05-06 09:28 34.10268 28.00738 36122 ft 438 kts 322°
2026-05-06 09:28 34.15196 27.96423 36122 ft 438 kts 322°
2026-05-06 09:29 34.20127 27.92097 36118 ft 438 kts 322°
2026-05-06 09:29 34.25051 27.87771 36108 ft 438 kts 322°
2026-05-06 09:30 34.29969 27.83444 36116 ft 437 kts 322°
2026-05-06 09:30 34.34887 27.79110 36121 ft 437 kts 322°
2026-05-06 09:31 34.39801 27.74774 36112 ft 437 kts 322°
2026-05-06 09:31 34.43877 27.71171 36114 ft 437 kts 322°
2026-05-06 09:32 34.48782 27.66831 36116 ft 436 kts 322°
2026-05-06 09:32 34.53679 27.62491 36117 ft 436 kts 322°
2026-05-06 09:33 34.58579 27.58142 36118 ft 436 kts 322°
2026-05-06 09:33 34.63474 27.53791 36111 ft 436 kts 322°
2026-05-06 09:34 34.68368 27.49435 36116 ft 436 kts 322°
2026-05-06 09:34 34.73256 27.45077 36119 ft 436 kts 322°
2026-05-06 09:35 34.78141 27.40715 36105 ft 436 kts 322°
2026-05-06 09:35 34.83022 27.36351 36119 ft 435 kts 322°
2026-05-06 09:36 34.87871 27.32008 36122 ft 435 kts 322°
2026-05-06 09:36 34.92741 27.27640 36120 ft 435 kts 322°
2026-05-06 09:37 34.97619 27.23258 36123 ft 435 kts 322°
2026-05-06 09:37 35.02492 27.18874 36107 ft 435 kts 322°
2026-05-06 09:38 35.07362 27.14487 36107 ft 435 kts 322°
2026-05-06 09:38 35.12221 27.10103 36112 ft 434 kts 322°
2026-05-06 09:39 35.17075 27.05715 36110 ft 434 kts 322°
2026-05-06 09:39 35.21927 27.01324 36109 ft 433 kts 322°
2026-05-06 09:40 35.26755 26.96948 36108 ft 433 kts 322°
2026-05-06 09:40 35.33987 26.90379 36111 ft 432 kts 322°
2026-05-06 09:41 35.38815 26.85987 36116 ft 432 kts 322°
2026-05-06 09:41 35.43668 26.81564 36114 ft 431 kts 322°
2026-05-06 09:42 35.48451 26.77197 36115 ft 431 kts 322°
2026-05-06 09:42 35.53256 26.72806 36122 ft 431 kts 322°
2026-05-06 09:43 35.58058 26.68409 36117 ft 430 kts 322°
2026-05-06 09:43 35.62859 26.64007 36119 ft 430 kts 322°
2026-05-06 09:44 35.67651 26.59607 36123 ft 430 kts 322°
2026-05-06 09:44 35.72447 26.55195 36124 ft 430 kts 322°
2026-05-06 09:45 35.77244 26.50777 36122 ft 431 kts 322°
2026-05-06 09:45 35.82041 26.46352 36123 ft 431 kts 322°
2026-05-06 09:46 35.86841 26.41916 36121 ft 431 kts 322°
2026-05-06 09:46 35.91641 26.37475 36120 ft 431 kts 322°
2026-05-06 09:47 35.96439 26.33027 36122 ft 432 kts 322°
2026-05-06 09:47 36.01241 26.28569 36124 ft 432 kts 322°
2026-05-06 09:48 36.06043 26.24105 36122 ft 432 kts 322°
2026-05-06 09:48 36.10832 26.19645 36121 ft 432 kts 322°
2026-05-06 09:49 36.15629 26.15171 36127 ft 432 kts 321°
2026-05-06 09:49 36.20420 26.10695 36127 ft 431 kts 321°
2026-05-06 09:50 36.25211 26.06213 36121 ft 431 kts 321°
2026-05-06 09:50 36.29997 26.01728 36123 ft 432 kts 321°
2026-05-06 09:51 36.34785 25.97234 36123 ft 432 kts 321°
2026-05-06 09:51 36.39579 25.92728 36123 ft 432 kts 321°
2026-05-06 09:52 36.44366 25.88220 36122 ft 432 kts 321°
2026-05-06 09:52 36.49155 25.83704 36122 ft 432 kts 321°
2026-05-06 09:53 36.53941 25.79183 36115 ft 432 kts 321°
2026-05-06 09:53 36.58698 25.74683 36118 ft 432 kts 321°
2026-05-06 09:54 36.63485 25.70147 36118 ft 433 kts 321°
2026-05-06 09:54 36.68274 25.65602 36119 ft 433 kts 321°
2026-05-06 09:55 36.73065 25.61047 36121 ft 433 kts 321°
2026-05-06 09:55 36.77853 25.56488 36116 ft 433 kts 321°
2026-05-06 09:56 36.82647 25.51916 36107 ft 434 kts 321°
2026-05-06 09:56 36.87436 25.47342 36096 ft 434 kts 321°
2026-05-06 09:57 36.92230 25.42755 36087 ft 434 kts 321°
2026-05-06 09:57 36.97024 25.38161 36083 ft 434 kts 321°
2026-05-06 09:58 37.01817 25.33560 36079 ft 434 kts 321°
2026-05-06 09:58 37.06611 25.28950 36071 ft 434 kts 321°
2026-05-06 09:59 37.11401 25.24337 36105 ft 434 kts 321°
2026-05-06 09:59 37.16190 25.19718 36105 ft 435 kts 321°
2026-05-06 10:00 37.20981 25.15090 36107 ft 434 kts 321°
2026-05-06 10:00 37.25768 25.10457 36108 ft 434 kts 321°
2026-05-06 10:01 37.30549 25.05821 36100 ft 434 kts 321°
2026-05-06 10:01 37.35332 25.01176 36099 ft 434 kts 321°
2026-05-06 10:02 37.40110 24.96530 36114 ft 434 kts 320°
2026-05-06 10:02 37.44894 24.91870 36105 ft 435 kts 321°
2026-05-06 10:03 37.49678 24.87201 36106 ft 436 kts 321°
2026-05-06 10:03 37.54462 24.82524 36104 ft 435 kts 321°
2026-05-06 10:04 37.59250 24.77837 36109 ft 435 kts 321°
2026-05-06 10:04 37.64031 24.73148 36108 ft 435 kts 321°
2026-05-06 10:05 37.68808 24.68456 36111 ft 435 kts 321°
2026-05-06 10:05 37.73584 24.63756 36102 ft 435 kts 321°
2026-05-06 10:06 37.78357 24.59052 36105 ft 435 kts 321°
2026-05-06 10:06 37.83121 24.54347 36116 ft 435 kts 321°
2026-05-06 10:07 37.87891 24.49629 36114 ft 435 kts 321°
2026-05-06 10:07 37.92655 24.44910 36102 ft 435 kts 321°
2026-05-06 10:08 37.97422 24.40180 36106 ft 435 kts 321°
2026-05-06 10:08 38.02183 24.35446 36107 ft 435 kts 321°
2026-05-06 10:09 38.06950 24.30701 36117 ft 436 kts 321°
2026-05-06 10:09 38.11714 24.25948 36101 ft 436 kts 321°
2026-05-06 10:10 38.16447 24.21220 36103 ft 436 kts 321°
2026-05-06 10:10 38.21210 24.16452 36094 ft 435 kts 321°
2026-05-06 10:11 38.25966 24.11685 36095 ft 435 kts 321°
2026-05-06 10:11 38.30723 24.06907 36088 ft 435 kts 321°
2026-05-06 10:12 38.35471 24.02131 36097 ft 435 kts 321°
2026-05-06 10:12 38.40223 23.97342 36090 ft 435 kts 320°
2026-05-06 10:13 38.44966 23.92554 36095 ft 435 kts 321°
2026-05-06 10:13 38.49715 23.87751 36085 ft 436 kts 321°
2026-05-06 10:14 38.54467 23.82939 36091 ft 436 kts 321°
2026-05-06 10:14 38.59218 23.78117 36086 ft 436 kts 321°
2026-05-06 10:15 38.63968 23.73288 36094 ft 436 kts 321°
2026-05-06 10:15 38.68706 23.68463 36083 ft 435 kts 321°
2026-05-06 10:16 38.73437 23.63638 36084 ft 435 kts 321°
2026-05-06 10:16 38.78171 23.58803 36077 ft 435 kts 320°
2026-05-06 10:17 38.82904 23.53956 36086 ft 436 kts 321°
2026-05-06 10:17 38.87639 23.49101 36078 ft 436 kts 321°
2026-05-06 10:18 38.92370 23.44241 36073 ft 436 kts 321°
2026-05-06 10:18 38.97108 23.39365 36065 ft 436 kts 321°
2026-05-06 10:19 39.01043 23.35310 36067 ft 436 kts 320°
2026-05-06 10:19 39.06542 23.29631 36061 ft 436 kts 320°
2026-05-06 10:20 39.10497 23.25541 36066 ft 436 kts 320°
2026-05-06 10:20 39.15220 23.20648 36071 ft 436 kts 320°
2026-05-06 10:21 39.19945 23.15743 36070 ft 436 kts 320°
2026-05-06 10:21 39.24660 23.10841 36080 ft 436 kts 320°
2026-05-06 10:22 39.29381 23.05924 36083 ft 435 kts 320°
2026-05-06 10:22 39.34091 23.01010 36085 ft 435 kts 320°
2026-05-06 10:23 39.38799 22.96089 36085 ft 435 kts 320°
2026-05-06 10:23 39.43506 22.91159 36070 ft 435 kts 320°
2026-05-06 10:24 39.48180 22.86257 36072 ft 435 kts 320°
2026-05-06 10:24 39.52881 22.81316 36076 ft 435 kts 320°
2026-05-06 10:25 39.57574 22.76375 36068 ft 435 kts 320°
2026-05-06 10:25 39.62265 22.71428 36079 ft 435 kts 320°
2026-05-06 10:26 39.66963 22.66464 36077 ft 435 kts 320°
2026-05-06 10:26 39.71654 22.61497 36068 ft 435 kts 320°
2026-05-06 10:27 39.76352 22.56515 36074 ft 436 kts 320°
2026-05-06 10:27 39.81047 22.51527 36068 ft 436 kts 320°
2026-05-06 10:28 39.85743 22.46529 36069 ft 436 kts 320°
2026-05-06 10:28 39.90428 22.41534 36074 ft 435 kts 320°
2026-05-06 10:29 39.95111 22.36532 36078 ft 435 kts 320°
2026-05-06 10:29 39.99794 22.31520 36080 ft 435 kts 320°
2026-05-06 10:30 40.04477 22.26500 36073 ft 436 kts 320°
2026-05-06 10:30 40.09157 22.21472 36068 ft 436 kts 320°
2026-05-06 10:31 40.13833 22.16440 36071 ft 435 kts 320°
2026-05-06 10:31 40.18491 22.11419 36086 ft 434 kts 320°
2026-05-06 10:32 40.23153 22.06383 36096 ft 435 kts 320°
2026-05-06 10:32 40.27790 22.01366 36087 ft 436 kts 320°
2026-05-06 10:33 40.32486 21.96275 36101 ft 435 kts 320°
2026-05-06 10:33 40.37109 21.91254 36101 ft 435 kts 320°
2026-05-06 10:34 40.41765 21.86188 36100 ft 435 kts 320°
2026-05-06 10:34 40.46423 21.81110 36094 ft 435 kts 320°
2026-05-06 10:35 40.51079 21.76025 36089 ft 435 kts 319°
2026-05-06 10:35 40.55733 21.70933 36076 ft 436 kts 319°
2026-05-06 10:36 40.60385 21.65832 36071 ft 435 kts 319°
2026-05-06 10:36 40.65034 21.60727 36066 ft 435 kts 319°
2026-05-06 10:37 40.69675 21.55620 36078 ft 434 kts 319°
2026-05-06 10:37 40.74307 21.50513 36070 ft 434 kts 319°
2026-05-06 10:38 40.78938 21.45397 36072 ft 434 kts 319°
2026-05-06 10:38 40.83566 21.40275 36072 ft 434 kts 319°
2026-05-06 10:39 40.88193 21.35151 36073 ft 434 kts 320°
2026-05-06 10:39 40.92922 21.30220 36095 ft 433 kts 321°
2026-05-06 10:40 40.97697 21.25375 36095 ft 432 kts 321°
2026-05-06 10:40 41.02455 21.20508 36080 ft 432 kts 321°
2026-05-06 10:41 41.07209 21.15605 36093 ft 434 kts 321°
2026-05-06 10:41 41.11966 21.10679 36093 ft 434 kts 321°
2026-05-06 10:42 41.16727 21.05739 36108 ft 435 kts 320°
2026-05-06 10:42 41.21491 21.00787 36117 ft 435 kts 320°
2026-05-06 10:43 41.26253 20.95825 36117 ft 435 kts 321°
2026-05-06 10:44 41.33396 20.88371 36115 ft 435 kts 320°
2026-05-06 10:44 41.38148 20.83399 36113 ft 434 kts 320°
2026-05-06 10:45 41.42897 20.78420 36089 ft 433 kts 320°
2026-05-06 10:45 41.47622 20.73458 36101 ft 431 kts 320°
2026-05-06 10:46 41.52330 20.68504 36072 ft 431 kts 320°
2026-05-06 10:46 41.57033 20.63545 36095 ft 431 kts 320°
2026-05-06 10:47 41.61737 20.58574 36073 ft 431 kts 320°
2026-05-06 10:47 41.66433 20.53604 36083 ft 431 kts 320°
2026-05-06 10:48 41.71146 20.48625 36069 ft 432 kts 320°
2026-05-06 10:48 41.75874 20.43641 36084 ft 433 kts 320°
2026-05-06 10:49 41.80609 20.38638 36077 ft 434 kts 320°
2026-05-06 10:49 41.85342 20.33626 36084 ft 433 kts 320°
2026-05-06 10:50 41.90059 20.28616 36076 ft 432 kts 320°
2026-05-06 10:50 41.94738 20.23639 36090 ft 431 kts 319°
2026-05-06 10:51 41.99442 20.18625 36083 ft 432 kts 319°
2026-05-06 10:51 42.04144 20.13603 36072 ft 431 kts 319°
2026-05-06 10:52 42.08843 20.08576 36076 ft 431 kts 319°
2026-05-06 10:52 42.13535 20.03546 36076 ft 431 kts 319°
2026-05-06 10:53 42.18228 19.98504 36083 ft 431 kts 319°
2026-05-06 10:53 42.22920 19.93454 36085 ft 431 kts 319°
2026-05-06 10:54 42.27609 19.88397 36083 ft 431 kts 319°
2026-05-06 10:54 42.32294 19.83335 36096 ft 431 kts 319°
2026-05-06 10:55 42.36981 19.78259 36081 ft 432 kts 319°
2026-05-06 10:55 42.41671 19.73171 36079 ft 431 kts 319°
2026-05-06 10:56 42.46350 19.68085 36089 ft 432 kts 319°
2026-05-06 10:56 42.51039 19.62978 36085 ft 433 kts 318°
2026-05-06 10:57 42.55701 19.57810 36084 ft 432 kts 317°
2026-05-06 10:57 42.60216 19.52436 36086 ft 432 kts 316°
2026-05-06 10:58 42.64720 19.47005 36081 ft 433 kts 316°
2026-05-06 10:58 42.69241 19.41582 36085 ft 434 kts 316°
2026-05-06 10:59 42.73777 19.36156 36072 ft 435 kts 316°
2026-05-06 10:59 42.78320 19.30722 36072 ft 435 kts 316°
2026-05-06 11:00 42.82835 19.25309 36066 ft 435 kts 316°
2026-05-06 11:00 42.87375 19.19856 36066 ft 435 kts 316°
2026-05-06 11:01 42.91910 19.14399 36068 ft 435 kts 315°
2026-05-06 11:01 42.96452 19.08918 36058 ft 436 kts 316°
2026-05-06 11:02 43.00995 19.03424 36052 ft 437 kts 315°
2026-05-06 11:02 43.05556 18.97901 36053 ft 439 kts 315°
2026-05-06 11:03 43.10134 18.92344 36050 ft 441 kts 315°
2026-05-06 11:03 43.14727 18.86755 36022 ft 443 kts 315°
2026-05-06 11:04 43.19317 18.81161 36028 ft 442 kts 315°
2026-05-06 11:04 43.23899 18.75571 36026 ft 440 kts 315°
2026-05-06 11:05 43.28482 18.69956 36004 ft 443 kts 315°
2026-05-06 11:05 43.32301 18.65267 36014 ft 444 kts 315°
2026-05-06 11:06 43.36910 18.59606 36028 ft 445 kts 315°
2026-05-06 11:06 43.41525 18.53924 36020 ft 446 kts 315°
2026-05-06 11:07 43.46148 18.48221 36011 ft 446 kts 315°
2026-05-06 11:07 43.50771 18.42503 36011 ft 447 kts 315°
2026-05-06 11:08 43.55400 18.36764 36009 ft 447 kts 315°
2026-05-06 11:08 43.60025 18.31021 36008 ft 448 kts 315°
2026-05-06 11:09 43.64655 18.25259 36008 ft 448 kts 315°
2026-05-06 11:09 43.69285 18.19481 35996 ft 449 kts 315°
2026-05-06 11:10 43.73916 18.13692 36003 ft 449 kts 315°
2026-05-06 11:10 43.78553 18.07882 35996 ft 450 kts 315°
2026-05-06 11:11 43.83164 18.02092 35998 ft 451 kts 315°
2026-05-06 11:11 43.87837 17.96211 35996 ft 451 kts 315°
2026-05-06 11:12 43.92457 17.90386 35990 ft 452 kts 315°
2026-05-06 11:12 43.97103 17.84512 35989 ft 453 kts 315°
2026-05-06 11:13 44.01760 17.78610 35991 ft 453 kts 315°
2026-05-06 11:13 44.06417 17.72698 35991 ft 454 kts 315°
2026-05-06 11:14 44.11069 17.66767 35995 ft 453 kts 314°
2026-05-06 11:14 44.15352 17.60359 35992 ft 451 kts 309°
2026-05-06 11:15 44.19503 17.53788 35989 ft 452 kts 309°
2026-05-06 11:15 44.23685 17.47245 35985 ft 452 kts 309°
2026-05-06 11:16 44.27871 17.40690 35988 ft 452 kts 309°
2026-05-06 11:16 44.32058 17.34111 35978 ft 453 kts 309°
2026-05-06 11:17 44.36244 17.27516 35981 ft 454 kts 309°
2026-05-06 11:17 44.40429 17.20908 35979 ft 454 kts 309°
2026-05-06 11:18 44.44623 17.14274 35972 ft 455 kts 309°
2026-05-06 11:18 44.48809 17.07637 35975 ft 455 kts 308°
2026-05-06 11:19 44.53008 17.00974 35968 ft 456 kts 308°
2026-05-06 11:19 44.57204 16.94309 35967 ft 456 kts 308°
2026-05-06 11:20 44.61649 16.87935 35973 ft 458 kts 314°
2026-05-06 11:20 44.66380 16.81904 35956 ft 460 kts 315°
2026-05-06 11:21 44.71118 16.75876 35957 ft 460 kts 314°
2026-05-06 11:21 44.75850 16.69796 35948 ft 461 kts 314°
2026-05-06 11:22 44.80574 16.63686 35950 ft 461 kts 314°
2026-05-06 11:22 44.85299 16.57558 35948 ft 462 kts 314°
2026-05-06 11:23 44.90016 16.51426 35948 ft 461 kts 314°
2026-05-06 11:23 44.94699 16.45323 35948 ft 461 kts 314°
2026-05-06 11:24 44.99439 16.39134 35946 ft 461 kts 314°
2026-05-06 11:24 45.04111 16.33018 35947 ft 461 kts 314°
2026-05-06 11:25 45.08814 16.26848 35945 ft 461 kts 314°
2026-05-06 11:25 45.13509 16.20673 35948 ft 461 kts 313°
2026-05-06 11:26 45.18211 16.14475 35947 ft 462 kts 313°
2026-05-06 11:26 45.22916 16.08257 35947 ft 462 kts 313°
2026-05-06 11:27 45.27612 16.02038 35949 ft 463 kts 313°
2026-05-06 11:27 45.32330 15.95774 35939 ft 464 kts 313°
2026-05-06 11:28 45.37042 15.89504 35943 ft 464 kts 313°
2026-05-06 11:28 45.41755 15.83216 35945 ft 464 kts 313°
2026-05-06 11:29 45.46469 15.76912 35945 ft 465 kts 313°
2026-05-06 11:29 45.51178 15.70604 35959 ft 465 kts 311°
2026-05-06 11:30 45.55877 15.64289 35945 ft 463 kts 311°
2026-05-06 11:30 45.60554 15.57989 35944 ft 461 kts 311°
2026-05-06 11:31 45.65208 15.51703 35963 ft 459 kts 311°
2026-05-06 11:31 45.69847 15.45423 35955 ft 459 kts 311°
2026-05-06 11:32 45.74477 15.39143 35970 ft 458 kts 311°
2026-05-06 11:32 45.79267 15.33088 35957 ft 463 kts 317°
2026-05-06 11:33 45.84455 15.27607 35966 ft 464 kts 318°
2026-05-06 11:33 45.89673 15.22140 35967 ft 464 kts 318°
2026-05-06 11:34 45.94872 15.16633 35963 ft 465 kts 318°
2026-05-06 11:34 46.00060 15.11092 35963 ft 465 kts 317°
2026-05-06 11:35 46.05254 15.05525 35952 ft 466 kts 317°
2026-05-06 11:35 46.10454 14.99941 35952 ft 465 kts 317°
2026-05-06 11:36 46.15618 14.94383 35957 ft 463 kts 317°
2026-05-06 11:36 46.20780 14.88815 35936 ft 463 kts 317°
2026-05-06 11:37 46.25899 14.83279 35948 ft 462 kts 317°
2026-05-06 11:37 46.31029 14.77721 35926 ft 456 kts 317°
2026-05-06 11:38 46.36000 14.72327 35797 ft 438 kts 317°
2026-05-06 11:38 46.40775 14.67124 35677 ft 422 kts 316°
2026-05-06 11:39 46.45391 14.62081 35491 ft 409 kts 316°
2026-05-06 11:39 46.47613 14.59566 35282 ft 404 kts 315°
2026-05-06 11:39 46.49804 14.57020 34999 ft 402 kts 314°
2026-05-06 11:39 46.51977 14.54473 34655 ft 401 kts 314°
2026-05-06 11:40 46.54151 14.51915 34259 ft 403 kts 313°
2026-05-06 11:40 46.56332 14.49352 33903 ft 404 kts 313°
2026-05-06 11:40 46.58522 14.46782 33508 ft 405 kts 313°
2026-05-06 11:40 46.60717 14.44207 33153 ft 406 kts 314°
2026-05-06 11:41 46.62924 14.41620 32724 ft 408 kts 314°
2026-05-06 11:41 46.65142 14.39019 32265 ft 411 kts 314°
2026-05-06 11:41 46.67374 14.36402 31826 ft 413 kts 314°
2026-05-06 11:41 46.69611 14.33778 31368 ft 415 kts 314°
2026-05-06 11:42 46.71866 14.31128 30905 ft 417 kts 314°
2026-05-06 11:42 46.74123 14.28476 30564 ft 415 kts 314°
2026-05-06 11:42 46.76367 14.25838 30225 ft 414 kts 314°
2026-05-06 11:42 46.78601 14.23209 29872 ft 412 kts 314°
2026-05-06 11:43 46.80828 14.20584 29485 ft 411 kts 314°
2026-05-06 11:43 46.83050 14.17960 29104 ft 409 kts 314°
2026-05-06 11:43 46.85258 14.15350 28718 ft 408 kts 314°
2026-05-06 11:44 46.89567 14.10245 27982 ft 405 kts 314°
2026-05-06 11:44 46.91748 14.07656 27612 ft 402 kts 314°
2026-05-06 11:44 46.93915 14.05088 27334 ft 399 kts 314°
2026-05-06 11:44 46.96031 14.02576 27037 ft 395 kts 314°
2026-05-06 11:45 46.98186 14.00009 26601 ft 397 kts 314°
2026-05-06 11:45 47.00338 13.97439 26347 ft 399 kts 314°
2026-05-06 11:45 47.02486 13.94875 26272 ft 397 kts 314°
2026-05-06 11:45 47.04593 13.92361 26200 ft 396 kts 314°
2026-05-06 11:46 47.06725 13.89812 26087 ft 395 kts 314°
2026-05-06 11:46 47.08853 13.87267 25989 ft 395 kts 314°
2026-05-06 11:46 47.10979 13.84720 25876 ft 395 kts 314°
2026-05-06 11:46 47.13104 13.82172 25735 ft 394 kts 314°
2026-05-06 11:47 47.15223 13.79629 25623 ft 394 kts 314°
2026-05-06 11:47 47.17346 13.77077 25436 ft 395 kts 314°
2026-05-06 11:47 47.19474 13.74515 25125 ft 396 kts 314°
2026-05-06 11:47 47.21599 13.71959 24806 ft 393 kts 314°
2026-05-06 11:48 47.23703 13.69424 24386 ft 389 kts 315°
2026-05-06 11:48 47.25800 13.66894 23932 ft 388 kts 314°
2026-05-06 11:48 47.27883 13.64378 23555 ft 386 kts 314°
2026-05-06 11:48 47.29953 13.61874 23043 ft 385 kts 315°
2026-05-06 11:49 47.32021 13.59371 22441 ft 385 kts 314°
2026-05-06 11:49 47.34077 13.56881 22042 ft 381 kts 315°
2026-05-06 11:49 47.36114 13.54413 21658 ft 377 kts 315°
2026-05-06 11:49 47.38127 13.51969 21303 ft 374 kts 314°
2026-05-06 11:50 47.40133 13.49528 20949 ft 374 kts 314°
2026-05-06 11:50 47.42139 13.47083 20602 ft 374 kts 314°
2026-05-06 11:50 47.44149 13.44631 20252 ft 375 kts 314°
2026-05-06 11:50 47.46162 13.42178 19914 ft 375 kts 314°
2026-05-06 11:51 47.48170 13.39727 19553 ft 375 kts 314°
2026-05-06 11:51 47.50179 13.37278 19215 ft 374 kts 314°
2026-05-06 11:51 47.52191 13.34844 18900 ft 373 kts 314°
2026-05-06 11:51 47.53519 13.33241 18640 ft 372 kts 315°
2026-05-06 11:52 47.56181 13.30030 18208 ft 365 kts 314°
2026-05-06 11:52 47.58140 13.27661 17885 ft 364 kts 314°
2026-05-06 11:52 47.59435 13.26091 17607 ft 363 kts 314°
2026-05-06 11:52 47.61384 13.23724 17216 ft 360 kts 314°
2026-05-06 11:53 47.63312 13.21381 16851 ft 357 kts 314°
2026-05-06 11:53 47.65222 13.19057 16486 ft 355 kts 314°
2026-05-06 11:53 47.67124 13.16744 16175 ft 352 kts 314°
2026-05-06 11:53 47.69015 13.14439 15871 ft 352 kts 314°
2026-05-06 11:54 47.70903 13.12137 15618 ft 351 kts 314°
2026-05-06 11:54 47.72792 13.09831 15352 ft 351 kts 315°
2026-05-06 11:54 47.74667 13.07539 15145 ft 348 kts 315°
2026-05-06 11:54 47.76527 13.05265 14949 ft 345 kts 315°
2026-05-06 11:55 47.78376 13.03001 14753 ft 343 kts 315°
2026-05-06 11:55 47.80215 13.00746 14562 ft 342 kts 315°
2026-05-06 11:55 47.82044 12.98501 14372 ft 341 kts 315°
2026-05-06 11:55 47.83871 12.96253 14182 ft 343 kts 315°
2026-05-06 11:56 47.85738 12.93955 14001 ft 351 kts 315°
2026-05-06 11:56 47.87619 12.91638 13819 ft 352 kts 315°
2026-05-06 11:56 47.89512 12.89311 13654 ft 353 kts 315°
2026-05-06 11:56 47.91405 12.86986 13447 ft 352 kts 315°
2026-05-06 11:57 47.93291 12.84659 13227 ft 351 kts 315°
2026-05-06 11:57 47.95043 12.82172 13005 ft 346 kts 307°
2026-05-06 11:57 47.96536 12.79401 12864 ft 339 kts 300°
2026-05-06 11:57 47.97783 12.76457 12773 ft 335 kts 296°
2026-05-06 11:58 47.98965 12.73457 12775 ft 335 kts 296°
2026-05-06 11:58 48.00147 12.70446 12767 ft 338 kts 296°
2026-05-06 11:58 48.01339 12.67422 12776 ft 338 kts 296°
2026-05-06 11:58 48.02536 12.64391 12642 ft 339 kts 296°
2026-05-06 11:59 48.03737 12.61359 12390 ft 339 kts 296°
2026-05-06 11:59 48.04936 12.58339 12166 ft 336 kts 296°
2026-05-06 11:59 48.06114 12.55349 11932 ft 330 kts 294°
2026-05-06 11:59 48.07046 12.52251 11693 ft 326 kts 287°
2026-05-06 12:00 48.07816 12.49077 11505 ft 325 kts 285°
2026-05-06 12:00 48.08551 12.45887 11304 ft 324 kts 284°
2026-05-06 12:00 48.09279 12.42703 11124 ft 324 kts 284°
2026-05-06 12:00 48.10001 12.39519 10911 ft 323 kts 284°
2026-05-06 12:01 48.10725 12.36325 10655 ft 324 kts 284°
2026-05-06 12:01 48.11442 12.33131 10447 ft 324 kts 284°
2026-05-06 12:01 48.12157 12.29934 10230 ft 323 kts 284°
2026-05-06 12:01 48.12861 12.26746 10004 ft 320 kts 282°
2026-05-06 12:02 48.13339 12.23516 9791 ft 317 kts 276°
2026-05-06 12:02 48.13675 12.20268 9586 ft 313 kts 275°
2026-05-06 12:02 48.13968 12.17203 9302 ft 292 kts 275°
2026-05-06 12:02 48.14253 12.14169 9078 ft 289 kts 274°
2026-05-06 12:03 48.14526 12.11208 8829 ft 286 kts 274°
2026-05-06 12:03 48.14791 12.08262 8614 ft 285 kts 274°
2026-05-06 12:03 48.15048 12.05333 8364 ft 283 kts 274°
2026-05-06 12:03 48.15301 12.02437 8165 ft 281 kts 274°
2026-05-06 12:04 48.15543 11.99630 7979 ft 279 kts 274°
2026-05-06 12:04 48.15789 11.96748 7767 ft 278 kts 274°
2026-05-06 12:04 48.16028 11.93908 7559 ft 273 kts 274°
2026-05-06 12:04 48.16260 11.91102 7367 ft 269 kts 275°
2026-05-06 12:05 48.16489 11.88327 7166 ft 269 kts 274°
2026-05-06 12:05 48.16717 11.85557 6978 ft 268 kts 274°
2026-05-06 12:05 48.16942 11.82800 6772 ft 266 kts 274°
2026-05-06 12:05 48.17160 11.80088 6623 ft 265 kts 274°
2026-05-06 12:06 48.17380 11.77310 6380 ft 265 kts 274°
2026-05-06 12:06 48.17585 11.74608 6226 ft 264 kts 274°
2026-05-06 12:06 48.17791 11.71887 5980 ft 261 kts 275°
2026-05-06 12:06 48.18003 11.69194 5770 ft 260 kts 274°
2026-05-06 12:07 48.18197 11.66514 5570 ft 258 kts 274°
2026-05-06 12:07 48.18382 11.63848 5379 ft 258 kts 274°
2026-05-06 12:07 48.18563 11.61178 5169 ft 257 kts 274°
2026-05-06 12:07 48.18737 11.58527 5075 ft 253 kts 274°
2026-05-06 12:08 48.18904 11.55924 4993 ft 250 kts 274°
2026-05-06 12:08 48.19068 11.53325 4878 ft 250 kts 274°
2026-05-06 12:08 48.19231 11.50748 4704 ft 248 kts 274°
2026-05-06 12:08 48.19385 11.48172 4454 ft 248 kts 274°
2026-05-06 12:09 48.19529 11.45589 4264 ft 249 kts 274°
2026-05-06 12:09 48.19668 11.43010 4097 ft 245 kts 275°
2026-05-06 12:09 48.20108 11.40628 4006 ft 228 kts 305°
2026-05-06 12:09 48.21202 11.39062 3982 ft 217 kts 339°
2026-05-06 12:10 48.22611 11.38548 3987 ft 213 kts 353°
2026-05-06 12:10 48.24067 11.38247 4053 ft 214 kts 354°
2026-05-06 12:10 48.25537 11.37959 4000 ft 206 kts 355°
2026-05-06 12:10 48.26882 11.38276 3985 ft 196 kts 33°
2026-05-06 12:11 48.27894 11.39667 4009 ft 199 kts 51°
2026-05-06 12:11 48.28743 11.41266 4010 ft 193 kts 53°
2026-05-06 12:11 48.29566 11.42848 3984 ft 191 kts 53°
2026-05-06 12:11 48.30366 11.44399 4010 ft 188 kts 54°
2026-05-06 12:12 48.31177 11.45979 4006 ft 192 kts 55°
2026-05-06 12:12 48.31740 11.47738 3984 ft 185 kts 78°
2026-05-06 12:12 48.32015 11.49644 4006 ft 191 kts 79°
2026-05-06 12:12 48.32241 11.51620 3994 ft 193 kts 83°
2026-05-06 12:13 48.32392 11.53570 4011 ft 185 kts 84°
2026-05-06 12:13 48.32545 11.55464 3988 ft 180 kts 84°
2026-05-06 12:13 48.32694 11.57348 3867 ft 187 kts 84°
2026-05-06 12:13 48.32846 11.59295 3592 ft 188 kts 84°
2026-05-06 12:14 48.32997 11.61232 3330 ft 184 kts 83°
2026-05-06 12:14 48.33141 11.63117 3103 ft 180 kts 83°
2026-05-06 12:14 48.33281 11.64961 2865 ft 175 kts 83°
2026-05-06 12:14 48.33414 11.66698 2679 ft 164 kts 83°
2026-05-06 12:15 48.33543 11.68362 2420 ft 154 kts 83°
2026-05-06 12:15 48.33661 11.69875 2237 ft 144 kts 82°
2026-05-06 12:15 48.33779 11.71408 2032 ft 150 kts 82°
2026-05-06 12:15 48.33902 11.72969 1806 ft 149 kts 82°
2026-05-06 12:16 48.34013 11.74508 1591 ft 147 kts 81°
2026-05-06 12:16 48.34135 11.76017 1481 ft 138 kts 81°
2026-05-06 12:16 48.34234 11.77264 1479 ft 100 kts 83°
2026-05-06 12:16 48.34300 11.78112 1483 ft 66 kts 83°
2026-05-06 12:17 48.34356 11.78813 1483 ft 63 kts 83°
2026-05-06 12:17 48.34448 11.79188 1477 ft 28 kts 53°
2026-05-06 12:17 48.34533 11.79357 1477 ft 12 kts 54°
2026-05-06 12:17 48.34564 11.79420 1475 ft 1 kts 54°
2026-05-06 12:18 48.34568 11.79429 1482 ft 2 kts 54°
2026-05-06 12:18 48.34577 11.79449 1477 ft 3 kts 54°
2026-05-06 12:18 48.34590 11.79475 1475 ft 4 kts 53°
2026-05-06 12:18 48.34631 11.79537 1481 ft 11 kts 34°
2026-05-06 12:19 48.34708 11.79555 1479 ft 11 kts 358°
2026-05-06 12:19 48.34778 11.79513 1476 ft 11 kts 302°
2026-05-06 12:19 48.34780 11.79393 1483 ft 12 kts 264°
2026-05-06 12:19 48.34771 11.79272 1480 ft 12 kts 263°
2026-05-06 12:20 48.34759 11.79130 1490 ft 15 kts 263°
2026-05-06 12:20 48.34746 11.78965 1490 ft 16 kts 263°
2026-05-06 12:20 48.34733 11.78801 1486 ft 16 kts 263°
2026-05-06 12:20 48.34720 11.78636 1481 ft 16 kts 263°
2026-05-06 12:21 48.34708 11.78471 1482 ft 16 kts 263°
2026-05-06 12:21 48.34695 11.78307 1475 ft 15 kts 263°
2026-05-06 12:21 48.34685 11.78168 1480 ft 13 kts 263°
2026-05-06 12:21 48.34674 11.78033 1490 ft 13 kts 263°
2026-05-06 12:22 48.34682 11.77924 1477 ft 10 kts 309°
2026-05-06 12:22 48.34748 11.77888 1488 ft 10 kts 352°
2026-05-06 12:22 48.34819 11.77874 1478 ft 10 kts 353°
2026-05-06 12:22 48.34891 11.77862 1487 ft 11 kts 354°
2026-05-06 12:23 48.34964 11.77851 1482 ft 11 kts 353°
2026-05-06 12:23 48.35039 11.77837 1485 ft 11 kts 353°
2026-05-06 12:23 48.35114 11.77823 1483 ft 11 kts 353°
2026-05-06 12:23 48.35177 11.77842 1475 ft 8 kts 51°
2026-05-06 12:24 48.35188 11.77932 1480 ft 9 kts 85°
2026-05-06 12:24 48.35194 11.78028 1484 ft 9 kts 84°
2026-05-06 12:24 48.35200 11.78109 1477 ft 7 kts 79°
2026-05-06 12:24 48.35225 11.78166 1475 ft 7 kts 51°
2026-05-06 12:25 48.35238 11.78233 1479 ft 7 kts 89°
2026-05-06 12:25 48.35235 11.78289 1483 ft 3 kts 95°
2026-05-06 12:25 48.35234 11.78314 1487 ft 1 kts 95°
2026-05-06 12:25 48.35234 11.78319 1488 ft 0 kts 95°